Regional Weather Roundup
Issued by NWS Sioux Falls, SD

Home | Current Version | Previous Version | Graphics & Text | Print | Product List | Glossary On
Versions: 1 2 3 4 5 6 7 8 9 10 11 12 13 14 15 16 17 18 19 20 21 22 23 24 25 26 27 28 29 30 31 32 33 34 35 36 37 38 39 40 41 42 43 44 45 46 47 48 49 50
000
ASUS43 KFSD 220502
RWRFSD

WEATHER ROUNDUP FOR SE SOUTH DAKOTA/SW MINNESOTA/NW IOWA
NATIONAL WEATHER SERVICE SIOUX FALLS SD
1200 AM CDT FRI SEP 22 2017

NOTE: "FAIR" INDICATES FEW OR NO CLOUDS BELOW 12,000 FEET WITH NO
SIGNIFICANT WEATHER AND OR OBSTRUCTIONS TO VISIBILITY.


SDZ038>040-050-052>070-220600-
SOUTHEAST SOUTH DAKOTA

CITY           SKY/WX    TMP DP  RH WIND       PRES   REMARKS
BROOKINGS      CLEAR     74  71  91 SE12      29.73S
CHAMBERLAIN    CLEAR     75  70  85 E9        29.61F
HURON          CLEAR     75  70  84 SE8       29.64F
MADISON        FAIR      73  73 100 SE13      29.72F
MITCHELL       CLEAR     78  71  79 SE13G23   29.64F
SIOUX FALLS    CLEAR     80  73  79 S18       29.72S
WINNER         FAIR      69  63  81 CALM      29.61S
YANKTON        CLEAR     81  73  76 S18G25    29.69S
$$

MNZ071-072-080-081-089-090-097-098-220600-
SOUTHWEST MINNESOTA

CITY           SKY/WX    TMP DP  RH WIND       PRES   REMARKS
FAIRMONT       CLEAR     75  70  84 S12       29.82R
JACKSON        CLEAR     75  70  83 S10G20    29.82R
MARSHALL       CLEAR     74  71  91 SE8       29.74S
MONTEVIDEO     CLEAR     73  70  88 SE7       29.74S
PIPESTONE      CLEAR     75  72  88 S8        29.76S
REDWOOD FALLS  CLEAR     74  69  85 SE9       29.76S
TRACY          CLEAR     76  72  88 S8        29.76S
WORTHINGTON    CLEAR     75  71  87 S12       29.79
$$

IAZ001>003-012>014-020>022-031-032-NEZ013-014-SDZ071-220600-
NORTHWEST IOWA

CITY           SKY/WX    TMP DP  RH WIND       PRES   REMARKS
CHEROKEE       CLEAR     75  73  93 S10       29.79S
DENISON        CLEAR     77  72  83 S16G23    29.83R
ESTHERVILLE    CLEAR     76  71  85 S16       29.81R
LE MARS        CLEAR     81  73  78 S13G22    29.76R
ORANGE CITY    CLEAR     81  73  78 S9        29.77S
SHELDON        CLEAR     75  72  88 S10       29.76S
SIOUX CITY     CLEAR     79  74  84 SE9       29.75S
SPENCER        CLEAR     76  71  85 S13       29.80S
STORM LAKE     CLEAR     75  72  88 S10G17    29.82S
$$

ABBREVIATIONS USED IN REMARKS
   TC - TEMPERATURE IN CELSIUS
  WCI - WIND CHILL INDEX
   HX - HEAT INDEX
  VSB - VISIBILITY




USA.gov is the U.S. government's official web portal to all federal, state and local government web resources and services.